Weather in Megrozero

Russia / Republic of Karelia     61°01′53″N   33°29′16″E
temp.,
°C
wind,
m/s
gust,
m/s
humid.,
%
clouds,
%
prec.,
mm/h
press.,
hPa
HPBL,
m
15 august, mon
mon1500:00+15e22785 0.0 102113
03:00+14e228513 0.0 102221
06:00+15e23855 0.0 102251
09:00+22ese23635 0.0 1022362
12:00+27se23475 0.0 10211355
15:00+29s233710 0.0 10202476
18:00+28wsw124439 0.0 1020266
21:00+21se246765 0.0 102067
16 august, tue
tue1600:00+20ese286987 0.0 1021217
03:00+20se2871100 0.0 1021198
06:00+19se2373100 0.0 102184
09:00+23se245890 0.0 1021354
12:00+28sse353985 0.0 10211772
15:00+29sse343685 0.0 10202287
18:00+27sse24443 0.0 1020758
21:00+21ese25657 0.0 102073
17 august, wed
wed1700:00+18se22725 0.0 102147
03:00+18se227495 0.0 102143
06:00+17sse24776 0.0 102098
09:00+23sse25555 0.0 1020385
12:00+28s35415 0.0 10201801
15:00+28ssw343794 0.0 10192408
18:00+25wsw235590 0.0 1019169
21:00+20sse227497 0.0 101916
18 august, thu
thu1800:00+19sse227866 0.0 102024
03:00+18se117760 0.0 102011
06:00+17se227713 0.0 102048
09:00+23se23515 0.0 1020328
12:00+28sse223719 0.0 10201341
15:00+30sse11349 0.0 10202073
18:00+28ese014272 0.0 1020197
21:00+21ene11627 0.0 102012
19 august, fri
fri1900:00+19e237627 0.0 102156
03:00+17ese23865 0.0 102159
06:00+17se23865 0.0 102263
09:00+23se246221 0.0 1022400
12:00+27sse33475 0.0 10221050
15:00+29sse233912 0.0 10211901
18:00+29ese234428 0.0 1021479
21:00+22ese25655 0.0 102292